Flag for South Korea Weather past 2 weeks in Cheongju, South Korea

Now
16 °F

Clear.


Feels Like: 16 °F
Forecast: 21 / 42 °F
Wind: 2 mph from Northeast

Location: Chongju Ab

Current Time: Mar 5, 2015 at 7:59:42 AM

Latest Report: Mar 5, 2015 at 7:00 AM


Visibility: 6 mi

Pressure: 30.33 "Hg

Humidity: 86%

Dew point: 12 °F

Location of CheongjuLocation

Historic Weather in Cheongju — Graph

°F

Cheongju temperature yesterday

Maximum temperature yesterday: 37 °F (at 1:00 PM)
Minimum temperature yesterday: 23 °F (at 11:55 PM)
Average temperature yesterday: 30 °F

Past Weeks' High & Low Weather Summary

 TemperatureHumidityPressure
High54 °F (Feb 25, 3:00 PM)100% (Feb 22, 7:00 AM)30.42 "Hg (Feb 22, 7:00 AM)
Low16 °F (Mar 5, 6:00 AM)21% (Feb 25, 4:00 PM)29.80 "Hg (Mar 3, 2:00 PM)
Average37 °F61%30.14 "Hg
* Reported Feb 18 6:00 AM — Mar 5 6:00 AM, Cheongju, Weather by CustomWeather, © 2015

Note: Actual official high and low records may vary slightly from our data, if they occured in-between our weather recording intervals... More about our weather records

Advertising

Cheongju weather history for previous 24 hours

 ConditionsComfort  
Time TempWeatherWind HumidityBarometerVisibility
6:00 AM
Thu, Mar 5
16 °FClear.1 mph86%30.33 "Hg10 mi
2:00 AM21 °FClear.1 mph68%30.33 "Hg10 mi
1:00 AM19 °FClear.1 mph73%30.33 "Hg10 mi
11:55 PM
Wed, Mar 4
23 °FClear.1 mph63%30.32 "HgN/A
10:00 PM25 °FClear.2 mph63%30.27 "Hg10 mi
9:00 PM25 °FPassing clouds.3 mph59%30.27 "HgN/A
8:00 PM28 °FPassing clouds.5 mph51%30.24 "HgN/A
7:00 PM30 °FPassing clouds.9 mph47%30.21 "HgN/A
6:00 PM32 °FScattered clouds.8 mph40%30.18 "HgN/A
5:00 PM34 °FScattered clouds.13 mph35%30.18 "HgN/A
4:00 PM36 °FScattered clouds.14 mph35%30.15 "HgN/A
3:00 PM36 °FScattered clouds.13 mph32%30.15 "HgN/A
2:00 PM36 °FPassing clouds.13 mph30%30.15 "HgN/A
1:00 PM37 °FPassing clouds.14 mph30%30.15 "HgN/A
12:00 PM36 °FPassing clouds.18 mph30%30.15 "HgN/A
11:00 AM34 °FPassing clouds.17 mph29%30.15 "HgN/A
10:00 AM30 °FPassing clouds.15 mph34%30.15 "HgN/A
9:00 AM28 °FPassing clouds.14 mph43%30.15 "HgN/A
8:00 AM27 °FPassing clouds.10 mph46%30.12 "HgN/A
7:00 AM25 °FPassing clouds.10 mph50%30.09 "HgN/A
Weather by CustomWeather, © 2015

See weather overviewHow to use our weather pages